Wetbulb
68.70 71.25 74.58 76.09 76.10 76.29 75.94 76.21 76.67 77.16 77.46 77.73 77.85 78.00 78.33 77.87 77.80 77.71 77.83 77.93 77.80 77.73 77.51 77.45 77.65 77.34 77.51 77.35 77.22 77.25 76.83 76.91 76.74 76.52 76.26 76.34 76.24 76.20 76.54 75.97 75.82 74.10 75.70
70.00 71.99 75.21 76.52 76.17 75.78 75.89 76.40 76.99 77.89 77.50 77.54 78.00 78.32 77.80 78.34 77.70 77.61 77.81 77.64 77.62 77.37 77.52 77.60 77.39 77.52 77.02 77.20 77.03 76.93 76.96 77.03 76.91 76.62 76.57 76.24 75.94 75.93 75.92 75.93 76.02 74.55 75.36
70.58 73.10 74.86 77.12 76.34 76.24 76.21 76.50 77.42 78.25 78.00 78.01 78.39 78.09 77.88 78.32 77.53 77.62 77.65 77.41 77.33 77.32 77.41 76.37 76.14 76.21 76.72 76.65 76.53 76.34 75.96 76.34 76.41 76.14 76.36 74.02 74.05 76.06 75.15 74.74 75.48 75.67 75.22
72.05 72.87 74.30 77.16 76.79 76.51 76.55 77.13 77.64 78.24 77.93 78.09 77.96 77.99 78.02 78.04 78.10 77.52 77.66 77.71 77.22 76.40 76.15 76.66 76.83 75.26 75.55 75.90 75.96 76.20 75.77 75.53 75.68 75.58 71.75 72.15 73.30 75.47 75.68 75.35 74.98 74.56 74.41
71.80 72.96 74.02 76.49 77.08 76.72 76.71 77.63 77.84 78.13 77.91 77.93 77.85 77.90 77.89 78.00 77.66 77.19 77.64 77.39 76.59 75.96 75.51 74.68 74.43 74.32 74.32 74.29 74.73 74.51 74.65 76.61 76.62 73.65 72.30 72.36 71.86 74.83 75.75 75.48 75.23 74.70 74.64
71.95 73.18 75.98 76.91 76.76 76.77 76.84 77.46 78.14 78.45 78.37 78.53 78.38 78.17 77.90 77.35 77.35 77.55 77.38 77.49 76.67 76.18 75.60 74.31 73.43 73.41 73.65 74.10 74.07 73.96 74.54 75.65 73.89 70.90 71.41 72.90 72.20 75.83 75.45 75.23 75.38 74.91 74.39
71.49 73.08 74.01 77.31 77.83 78.04 77.31 78.12 78.04 78.09 78.03 78.49 78.38 78.06 77.76 77.75 77.70 77.39 77.45 77.81 77.46 77.02 76.42 75.01 73.41 73.04 73.41 73.48 73.17 73.76 77.52 75.18 72.31 71.77 71.32 70.66 71.26 74.57 74.16 75.24 75.48 74.66 74.27
72.03 73.42 74.49 77.06 77.93 77.38 77.47 78.61 77.92 78.05 78.26 78.48 78.10 77.56 77.37 77.54 77.44 77.25 77.29 77.32 77.26 77.30 76.81 76.05 74.65 73.27 72.41 72.61 72.38 74.43 76.99 75.82 73.29 71.86 71.64 72.33 75.17 75.58 74.61 74.30 73.89 73.67 73.80
72.59 72.52 72.74 74.30 74.68 77.13 77.90 78.38 78.49 78.09 78.07 77.63 78.01 77.14 76.82 76.98 77.03 77.15 77.25 77.26 76.91 76.74 76.79 76.49 75.78 75.15 73.90 73.41 74.03 75.65 76.30 74.23 68.19 68.86 70.92 70.30 75.04 74.56 74.82 74.70 75.05 74.58 74.26
71.49 71.51 71.58 71.22 71.98 73.17 74.72 77.93 78.01 78.16 77.85 77.67 77.89 77.37 76.37 76.51 76.67 76.89 77.54 78.13 76.54 76.15 76.15 76.04 76.18 76.36 77.03 76.48 76.11 75.98 74.34 70.99 62.83 64.86 66.52 68.04 73.29 72.74 73.19 73.24 73.36 73.44 73.85
70.00 70.53 70.82 70.62 71.64 71.92 72.95 75.11 77.83 77.74 77.37 78.03 77.37 77.07 76.53 72.22 73.07 75.10 76.06 76.68 76.71 76.60 77.18 78.01 78.51 78.49 78.09 77.75 77.47 77.09 72.89 63.47 63.98 65.68 66.54 72.76 72.63 71.07 71.35 71.33 71.35 71.64 71.90
68.02 69.89 70.53 70.74 71.13 72.18 72.74 71.96 74.13 75.01 74.98 74.56 75.10 74.71 73.77 72.72 72.63 74.68 75.75 78.16 77.98 78.67 79.16 79.55 79.45 79.45 78.88 74.13 73.46 77.67 69.20 64.08 64.37 65.39 67.19 73.12 72.94 71.18 70.77 70.45 70.13 69.80 69.68
68.92 70.20 70.44 70.72 71.34 70.85 70.87 72.03 73.21 73.57 74.11 73.80 73.82 73.76 73.35 74.18 73.15 73.57 70.85 70.76 72.41 74.83 74.99 76.17 76.97 76.06 75.08 74.19 73.31 72.78 71.37 64.62 64.45 65.99 69.17 73.60 73.39 72.10 71.88 71.55 71.24 70.95 70.43
69.13 69.89 70.19 70.49 71.39 70.38 71.65 72.16 72.70 73.13 73.36 73.31 73.30 72.45 71.58 72.16 70.03 69.21 69.16 70.14 71.38 72.70 72.11 72.51 72.68 74.63 73.76 73.45 72.86 73.11 67.32 66.19 65.50 66.02 68.65 73.49 74.28 73.46 72.89 72.52 72.16 71.97 71.73
68.93 69.59 69.76 70.95 71.03 69.92 70.45 71.94 71.99 72.63 73.17 73.46 73.06 72.65 72.43 72.03 70.28 70.21 70.38 70.53 71.11 72.12 71.28 70.09 70.69 72.60 72.10 71.46 72.16 72.18 67.75 67.53 66.74 67.07 67.95 73.94 74.40 74.85 73.93 73.65 73.20 72.90 72.54
70.13 69.91 71.11 71.38 71.15 70.02 70.69 71.86 72.26 72.62 73.69 72.78 72.44 72.50 72.55 72.08 70.92 70.73 69.49 70.01 70.77 70.64 70.80 70.97 72.03 72.10 72.15 72.49 69.10 69.30 68.73 69.15 68.20 67.58 68.63 71.61 75.62 75.44 75.34 74.85 74.25 73.82 73.61
70.67 71.80 71.11 71.43 71.61 71.99 71.85 71.84 72.58 73.06 74.47 72.50 72.03 71.51 72.77 71.55 71.24 71.96 71.95 71.37 70.07 69.28 70.93 72.20 72.24 72.93 72.48 72.63 70.53 71.25 69.90 69.88 69.77 69.10 69.12 70.26 73.13 75.92 75.85 76.17 76.16 75.78 75.22
70.49 70.32 71.28 72.99 72.32 71.05 71.33 70.99 71.99 72.82 73.34 72.74 71.73 71.46 72.58 72.60 71.64 71.34 72.38 70.10 71.19 70.10 71.04 71.24 71.53 70.78 69.42 70.45 70.31 70.10 70.53 69.99 70.38 70.31 69.93 70.36 71.33 72.81 75.30 76.38 76.41 76.41 76.60
70.33 69.97 70.38 70.90 70.83 70.19 70.35 71.02 71.61 71.49 71.71 72.31 71.24 71.06 72.41 72.48 73.05 70.85 72.75 73.12 71.54 69.14 70.76 71.77 72.12 70.63 69.72 70.70 71.77 69.96 69.96 69.89 70.32 71.99 71.16 70.62 70.41 71.54 71.56 74.60 76.59 76.57 77.16
70.41 70.30 70.29 71.07 70.20 70.63 70.92 69.36 71.05 71.86 72.00 72.54 71.54 70.77 72.64 71.85 73.16 71.84 72.50 72.97 71.15 70.15 72.62 71.19 71.01 71.54 71.91 71.83 73.12 70.99 70.34 70.68 70.30 70.59 70.47 71.71 71.33 71.87 71.21 71.33 72.75 75.03 77.10
70.20 69.62 68.60 69.71 68.72 70.23 70.07 69.10 68.76 69.29 68.84 70.61 71.15 71.48 71.97 71.89 72.22 72.08 72.30 72.13 71.71 68.78 71.54 71.95 71.37 71.05 70.75 72.43 68.52 67.61 68.55 69.58 68.37 68.77 69.34 69.48 70.25 70.91 71.11 72.02 72.01 73.07 73.78
69.12 69.08 68.53 69.71 69.06 69.87 69.81 69.47 70.31 69.69 68.94 68.97 70.24 71.54 71.97 72.33 72.07 72.62 72.43 71.79 72.30 69.62 70.83 70.18 70.09 70.30 71.04 71.61 67.19 66.84 65.86 68.46 69.21 69.92 67.70 69.10 68.64 68.82 70.30 72.19 72.33 72.46 72.62
69.01 68.79 69.08 70.06 70.02 70.15 69.19 69.36 69.85 70.37 69.79 68.76 69.94 70.70 71.86 72.64 72.83 71.58 72.69 71.98 71.63 72.18 71.08 69.89 69.85 70.81 69.03 70.72 71.00 66.69 64.33 63.72 65.27 68.06 68.98 69.95 69.33 68.76 70.02 69.48 69.88 69.07 69.15
69.33 70.25 69.87 70.81 70.58 71.15 70.14 68.60 68.42 68.17 67.59 69.02 68.93 71.11 72.28 72.63 72.86 71.82 71.26 71.73 71.47 71.57 71.10 70.54 71.65 70.97 71.62 69.77 69.40 71.63 69.44 67.43 63.47 61.99 67.44 69.08 70.20 70.37 69.78 69.29 68.48 68.97 68.28
69.88 70.14 70.30 71.34 70.56 71.44 71.14 69.89 68.72 68.04 68.83 69.38 69.75 71.01 71.70 72.18 72.44 73.40 71.76 71.24 72.39 72.08 71.62 71.51 71.94 72.65 72.66 71.01 69.80 70.68 69.44 70.37 69.28 65.56 64.37 66.84 69.55 68.81 68.86 67.94 66.47 67.48 68.91
70.00 70.13 70.56 71.19 70.68 70.77 71.19 71.27 69.94 69.36 69.62 69.47 69.41 69.38 70.78 71.56 71.95 71.79 72.68 71.19 71.61 72.63 71.35 70.65 71.06 72.36 70.95 71.57 71.73 71.36 68.28 66.28 65.75 67.01 66.09 65.91 65.00 67.29 68.33 67.01 66.63 67.84 69.12
MSLP
1016.74 1016.60 1016.40 1016.20 1016.18 1016.27 1016.24 1016.19 1016.19 1016.19 1016.11 1016.22 1016.27 1016.31 1016.32 1016.36 1016.48 1016.50 1016.52 1016.54 1016.61 1016.55 1016.59 1016.75 1016.77 1016.83 1016.85 1016.83 1016.81 1016.81 1017.01 1016.96 1017.02 1017.01 1017.19 1017.22 1017.27 1017.30 1017.32 1017.47 1017.52 1017.54 1017.60
1016.14 1016.46 1016.34 1016.32 1016.37 1016.45 1016.48 1016.51 1016.50 1016.49 1016.55 1016.62 1016.63 1016.63 1016.76 1016.73 1016.77 1016.83 1016.82 1016.86 1016.87 1016.86 1016.81 1016.92 1017.04 1017.13 1017.15 1017.07 1017.23 1017.25 1017.32 1017.29 1017.35 1017.32 1017.33 1017.41 1017.48 1017.59 1017.68 1017.69 1017.81 1017.95 1018.00
1016.17 1016.29 1016.29 1016.44 1016.58 1016.69 1016.73 1016.76 1016.70 1016.76 1016.91 1016.96 1016.90 1017.05 1017.10 1017.10 1017.13 1017.12 1017.13 1017.12 1017.14 1017.18 1017.19 1017.24 1017.31 1017.42 1017.42 1017.46 1017.53 1017.56 1017.60 1017.66 1017.61 1017.67 1017.73 1017.81 1017.86 1017.90 1017.97 1017.97 1018.00 1018.02 1018.04
1015.92 1016.20 1016.30 1016.46 1016.67 1016.85 1016.93 1016.90 1017.00 1017.01 1017.09 1017.23 1017.20 1017.39 1017.37 1017.49 1017.46 1017.43 1017.44 1017.41 1017.39 1017.38 1017.50 1017.58 1017.57 1017.64 1017.67 1017.73 1017.82 1017.87 1017.82 1017.94 1017.89 1018.05 1018.12 1018.11 1018.05 1018.13 1018.14 1018.18 1018.24 1018.25 1018.26
1015.81 1016.07 1016.24 1016.46 1016.71 1016.90 1017.02 1017.05 1017.16 1017.30 1017.42 1017.45 1017.60 1017.72 1017.67 1017.76 1017.72 1017.69 1017.63 1017.60 1017.66 1017.69 1017.64 1017.72 1017.82 1017.86 1017.86 1017.96 1018.14 1018.13 1018.01 1017.95 1017.96 1018.31 1018.47 1018.45 1018.39 1018.38 1018.35 1018.38 1018.42 1018.44 1018.48
1015.87 1016.07 1016.20 1016.46 1016.70 1016.96 1017.08 1017.13 1017.26 1017.44 1017.61 1017.66 1017.77 1017.85 1017.84 1017.95 1017.93 1017.88 1017.82 1017.82 1017.84 1017.82 1017.81 1017.83 1017.94 1017.93 1018.03 1018.23 1018.26 1018.15 1018.06 1018.19 1018.36 1018.64 1018.67 1018.63 1018.60 1018.46 1018.43 1018.45 1018.47 1018.53 1018.55
1015.96 1016.08 1016.26 1016.46 1016.75 1017.04 1017.19 1017.20 1017.40 1017.62 1017.80 1017.87 1018.03 1018.17 1018.23 1018.20 1018.12 1018.05 1018.01 1018.04 1018.04 1018.05 1018.01 1018.04 1018.09 1018.14 1018.27 1018.42 1018.29 1018.27 1018.12 1018.36 1018.62 1018.76 1018.80 1018.82 1018.68 1018.55 1018.57 1018.53 1018.54 1018.58 1018.61
1016.08 1016.25 1016.32 1016.55 1016.92 1017.22 1017.38 1017.37 1017.48 1017.71 1017.93 1017.94 1018.19 1018.36 1018.44 1018.33 1018.22 1018.22 1018.27 1018.31 1018.26 1018.21 1018.21 1018.24 1018.28 1018.37 1018.52 1018.47 1018.51 1018.41 1018.32 1018.50 1018.71 1018.81 1018.87 1018.85 1018.65 1018.54 1018.55 1018.59 1018.57 1018.65 1018.68
1016.21 1016.41 1016.61 1016.85 1017.16 1017.30 1017.47 1017.60 1017.69 1017.83 1017.95 1018.10 1018.28 1018.55 1018.54 1018.36 1018.29 1018.47 1018.48 1018.47 1018.37 1018.40 1018.36 1018.46 1018.52 1018.61 1018.64 1018.67 1018.65 1018.45 1018.41 1018.68 1018.92 1018.92 1018.90 1018.92 1018.74 1018.68 1018.65 1018.65 1018.73 1018.74 1018.76
1016.46 1016.64 1016.94 1017.14 1017.34 1017.41 1017.62 1017.82 1017.92 1018.06 1018.08 1018.25 1018.44 1018.56 1018.59 1018.34 1018.45 1018.62 1018.65 1018.56 1018.60 1018.45 1018.52 1018.66 1018.71 1018.74 1018.78 1018.82 1018.76 1018.62 1018.63 1018.79 1018.89 1018.93 1018.95 1018.92 1018.76 1018.71 1018.69 1018.75 1018.79 1018.83 1018.87
1016.98 1017.10 1017.18 1017.42 1017.56 1017.56 1017.68 1017.85 1018.08 1018.22 1018.33 1018.42 1018.49 1018.61 1018.60 1018.54 1018.68 1018.75 1018.74 1018.69 1018.57 1018.58 1018.41 1018.65 1018.73 1018.73 1018.73 1018.73 1018.76 1018.73 1018.79 1019.00 1018.83 1018.86 1018.85 1018.73 1018.70 1018.63 1018.61 1018.67 1018.72 1018.81 1018.91
1017.19 1017.31 1017.33 1017.56 1017.70 1017.79 1017.75 1018.12 1018.28 1018.39 1018.51 1018.64 1018.71 1018.77 1018.75 1018.74 1018.82 1018.69 1018.67 1018.57 1018.75 1018.38 1018.65 1018.48 1018.50 1018.59 1018.84 1018.83 1018.80 1018.68 1018.86 1018.93 1018.88 1018.79 1018.74 1018.57 1018.57 1018.54 1018.57 1018.67 1018.76 1018.84 1018.87
1016.79 1017.21 1017.44 1017.57 1017.73 1017.91 1017.94 1018.41 1018.56 1018.59 1018.63 1018.70 1018.81 1018.82 1018.85 1018.81 1018.81 1018.80 1018.91 1018.88 1018.60 1018.66 1018.42 1018.35 1018.20 1018.33 1018.52 1018.78 1018.77 1018.76 1018.89 1018.92 1018.87 1018.64 1018.46 1018.44 1018.46 1018.47 1018.50 1018.54 1018.63 1018.73 1018.74
1016.73 1017.00 1017.44 1017.48 1017.68 1017.97 1018.12 1018.52 1018.66 1018.74 1018.73 1018.74 1018.74 1018.82 1018.97 1018.89 1018.90 1019.00 1018.86 1018.57 1018.34 1018.10 1018.25 1018.14 1018.16 1017.97 1018.09 1018.58 1018.50 1018.58 1018.74 1018.76 1018.71 1018.48 1018.42 1018.30 1018.25 1018.28 1018.35 1018.40 1018.51 1018.63 1018.68
1016.45 1016.89 1017.33 1017.48 1017.66 1017.91 1018.21 1018.50 1018.68 1018.81 1018.78 1018.61 1018.68 1018.75 1018.76 1018.75 1018.88 1019.01 1018.73 1018.64 1018.37 1018.10 1018.18 1018.15 1018.27 1018.08 1017.91 1017.85 1018.08 1018.15 1018.39 1018.53 1018.47 1018.36 1018.33 1018.20 1018.30 1018.28 1018.27 1018.30 1018.40 1018.49 1018.50
1016.12 1016.50 1016.94 1017.31 1017.51 1017.90 1018.15 1018.32 1018.38 1018.51 1018.55 1018.69 1018.73 1018.65 1018.69 1018.85 1018.75 1018.71 1018.72 1018.69 1018.40 1018.17 1017.97 1017.99 1017.87 1017.70 1017.53 1017.59 1017.61 1017.55 1017.82 1018.06 1018.12 1018.12 1018.10 1018.04 1018.04 1018.17 1018.19 1018.16 1018.14 1018.22 1018.20
1015.44 1016.15 1016.53 1016.92 1017.19 1017.48 1017.90 1018.13 1018.26 1018.28 1018.38 1018.59 1018.76 1018.58 1018.54 1018.62 1018.67 1018.63 1018.67 1018.52 1018.20 1018.16 1018.20 1018.03 1017.89 1017.63 1017.58 1017.21 1017.67 1017.93 1017.82 1017.71 1017.71 1017.72 1017.82 1017.88 1017.79 1017.89 1017.95 1017.82 1017.79 1017.90 1017.88
1015.29 1015.86 1016.35 1016.78 1017.16 1017.44 1017.51 1017.79 1017.95 1018.22 1018.30 1018.36 1018.61 1018.59 1018.48 1018.52 1018.60 1018.68 1018.84 1018.49 1018.22 1018.36 1018.21 1018.09 1018.13 1017.97 1017.81 1017.80 1017.78 1017.59 1017.53 1017.43 1017.33 1017.27 1017.49 1017.49 1017.57 1017.56 1017.46 1017.52 1017.52 1017.57 1017.54
1014.96 1015.64 1016.28 1016.58 1017.10 1017.33 1017.45 1017.64 1017.76 1018.19 1018.29 1018.40 1018.56 1018.54 1018.32 1018.35 1018.43 1018.69 1018.72 1018.51 1018.27 1018.53 1018.09 1018.15 1018.20 1018.21 1018.24 1017.96 1017.68 1017.42 1017.11 1017.08 1017.04 1016.84 1016.99 1017.03 1017.07 1017.07 1017.12 1017.03 1017.09 1017.17 1017.13
1014.97 1015.60 1016.02 1016.51 1017.02 1017.32 1017.45 1017.73 1017.80 1018.24 1018.20 1018.32 1018.49 1018.43 1018.33 1018.29 1018.35 1018.61 1018.63 1018.60 1018.59 1018.58 1018.42 1018.42 1018.39 1018.21 1018.01 1017.89 1017.56 1017.24 1017.02 1016.79 1016.56 1016.65 1016.60 1016.48 1016.65 1016.73 1016.69 1016.69 1016.83 1016.71 1016.51
1014.88 1015.54 1016.16 1016.58 1016.98 1017.44 1017.79 1018.08 1018.13 1018.20 1018.30 1018.47 1018.35 1018.33 1018.27 1018.24 1018.30 1018.45 1018.55 1018.56 1018.65 1018.92 1018.44 1018.34 1018.36 1018.23 1018.17 1017.93 1017.99 1017.57 1016.94 1016.62 1016.51 1016.38 1016.26 1016.14 1015.99 1016.10 1016.24 1016.27 1016.21 1016.16 1015.97
1014.62 1015.33 1015.98 1016.40 1016.81 1017.12 1017.41 1017.64 1017.81 1018.04 1018.09 1018.15 1018.14 1018.12 1018.23 1018.19 1018.21 1018.39 1018.39 1018.57 1018.77 1018.89 1018.74 1018.50 1018.48 1018.56 1018.43 1018.09 1018.35 1018.53 1018.05 1017.21 1016.70 1016.61 1016.33 1016.22 1016.03 1016.01 1015.89 1015.94 1016.07 1016.09 1015.93
1014.38 1014.99 1015.50 1015.94 1016.44 1016.89 1017.23 1017.57 1017.87 1018.02 1018.12 1018.13 1018.26 1018.19 1018.03 1018.06 1017.98 1018.12 1018.10 1018.18 1018.47 1018.63 1018.67 1018.53 1018.52 1018.66 1018.65 1018.28 1018.19 1018.42 1018.62 1018.49 1017.93 1016.94 1016.61 1016.49 1016.42 1016.40 1015.98 1015.84 1015.68 1015.53 1015.28
1014.27 1014.51 1015.02 1015.41 1015.93 1016.45 1016.89 1017.36 1017.86 1018.22 1018.37 1018.21 1018.13 1017.94 1017.82 1017.84 1017.77 1017.77 1017.79 1017.81 1017.99 1018.20 1018.46 1018.40 1018.41 1018.48 1018.62 1018.61 1018.30 1018.14 1018.20 1018.29 1018.38 1018.25 1017.31 1016.91 1016.66 1016.38 1016.12 1015.86 1015.69 1015.09 1014.68
1014.10 1014.31 1014.72 1015.23 1015.72 1016.09 1016.44 1016.75 1017.32 1017.83 1018.09 1017.90 1017.95 1017.86 1017.76 1017.51 1017.52 1017.36 1017.40 1017.47 1017.64 1017.68 1018.03 1018.11 1018.12 1018.18 1018.26 1018.39 1018.45 1018.40 1018.41 1018.37 1018.45 1018.71 1018.42 1017.68 1017.03 1016.43 1016.06 1015.91 1015.52 1015.00 1014.50
1014.23 1014.48 1014.72 1014.97 1015.23 1015.68 1016.03 1016.22 1016.47 1016.86 1017.38 1017.80 1017.75 1017.66 1017.48 1017.52 1017.46 1017.14 1017.05 1017.18 1017.17 1017.19 1017.49 1017.65 1017.78 1017.80 1017.90 1018.12 1018.13 1018.29 1018.45 1018.63 1018.67 1018.78 1018.84 1018.24 1017.80 1016.84 1016.12 1015.61 1015.31 1014.93 1014.58
Wind_Speed
4 5 8 11 12 12 13 14 15 16 16 16 16 16 16 17 16 16 15 15 15 14 14 13 14 14 14 14 14 15 14 15 15 16 15 13 11 11 13 13 13 9 12
7 5 12 12 13 13 13 14 15 15 16 16 15 16 16 15 16 15 14 14 14 13 13 13 12 13 13 13 13 13 13 14 14 14 15 15 15 13 13 12 12 10 12
9 7 11 11 13 13 13 14 15 15 15 15 16 16 16 15 15 14 13 13 12 11 11 12 12 11 10 10 12 12 12 12 12 13 13 5 6 13 12 12 11 11 11
10 5 8 13 13 13 13 13 14 15 15 16 16 14 14 13 13 13 12 12 12 12 10 9 10 10 9 8 9 8 7 6 6 12 4 4 7 11 11 11 11 10 10
9 8 10 15 14 15 14 13 14 15 15 16 15 14 14 13 12 12 11 12 11 10 11 9 9 7 7 7 7 5 4 5 12 11 5 5 3 8 11 10 10 9 9
10 9 13 16 17 16 15 15 15 15 14 14 14 14 14 13 12 11 10 9 9 10 10 9 8 7 6 6 6 5 2 13 14 6 4 7 5 10 10 9 10 9 8
8 7 11 16 17 16 16 16 16 15 14 13 13 13 12 11 10 10 9 9 9 9 9 8 7 6 5 5 4 4 13 15 7 5 5 4 5 9 9 9 10 9 7
11 8 10 18 18 16 15 16 16 15 14 14 12 11 10 10 8 8 7 8 8 8 7 6 4 3 2 3 3 4 17 13 8 5 5 4 6 10 10 10 8 8 7
11 10 8 11 15 16 13 15 14 14 13 12 11 9 9 8 7 6 5 5 6 5 5 3 1 1 0 1 1 5 13 13 6 4 5 3 7 9 9 8 7 8 7
11 9 7 6 6 7 7 13 12 11 11 10 10 9 8 8 7 6 3 2 3 2 1 2 3 3 4 4 2 6 11 12 6 5 3 3 8 9 9 8 7 7 7
8 9 6 6 5 5 6 8 10 11 10 10 9 9 7 3 3 4 4 5 4 3 5 6 7 7 6 4 3 2 9 2 4 4 3 9 9 10 9 9 8 8 8
11 9 8 7 6 5 7 5 5 5 3 4 3 3 3 3 3 5 6 8 5 6 7 10 10 10 7 3 2 4 3 4 3 4 3 11 11 11 10 10 9 8 8
13 9 8 8 6 6 5 3 2 2 2 3 5 4 4 3 3 3 2 2 3 5 4 6 7 5 5 4 3 2 4 4 3 3 7 13 13 13 12 11 11 10 9
13 12 9 9 8 6 4 4 4 3 3 3 4 5 3 3 3 3 3 3 4 2 3 4 3 5 5 4 6 6 6 5 4 3 6 15 14 14 14 13 13 12 11
14 12 12 10 9 6 6 4 4 4 3 4 4 4 4 3 4 4 4 3 3 3 2 3 3 1 3 3 8 8 9 7 6 4 3 16 14 14 14 14 14 13 13
14 15 14 12 8 7 7 7 5 4 5 3 3 4 4 4 3 2 1 3 3 2 2 4 4 5 5 1 3 9 10 8 7 6 4 7 15 15 15 15 15 15 15
16 16 16 13 9 12 9 6 7 7 5 4 4 4 3 4 2 2 2 4 3 2 5 4 5 5 4 4 3 5 6 8 7 8 6 4 7 16 16 17 16 15 16
15 15 15 12 10 8 8 6 5 3 5 4 4 4 5 4 4 0 2 4 5 2 1 3 2 3 2 3 3 4 4 5 8 8 6 6 5 6 14 18 17 17 17
15 12 11 8 8 7 6 4 5 5 4 4 4 4 6 5 3 2 2 5 5 2 3 2 2 1 2 1 2 3 4 4 5 5 8 8 7 7 5 11 18 17 19
14 13 11 8 8 7 5 3 3 2 4 4 4 4 6 5 4 3 3 5 3 3 2 1 3 1 1 2 3 5 4 4 5 5 4 5 5 7 7 6 5 10 19
15 13 9 10 7 5 2 2 1 2 3 3 4 6 6 6 5 5 3 4 2 5 2 3 1 3 3 3 3 4 3 3 2 3 3 5 6 6 6 6 5 5 5
17 13 11 11 8 6 4 3 3 2 3 3 4 5 6 6 6 5 5 5 1 3 5 4 2 2 2 1 0 0 4 5 4 3 2 2 2 2 3 4 4 6 6
16 12 12 11 10 6 6 2 1 2 2 2 2 3 6 8 7 7 7 5 5 3 4 5 3 2 2 2 1 3 2 2 3 3 3 3 3 2 2 3 4 6 7
14 13 12 12 12 8 8 5 5 4 4 3 3 4 6 9 9 7 7 7 6 4 4 4 3 3 2 3 2 1 2 3 2 4 3 4 4 3 5 4 5 7 6
14 13 12 11 12 11 11 9 7 5 4 4 3 5 7 8 9 11 8 7 6 4 5 5 5 4 3 3 3 1 2 1 2 1 4 5 4 4 3 3 4 5 7
7 9 7 10 12 11 12 11 13 11 9 6 6 4 5 6 8 8 7 6 7 6 6 6 6 4 4 3 2 2 2 1 1 1 1 3 3 5 4 5 4 5 5
Wind_Direction
205 193 160 135 116 108 101 94 94 95 95 95 95 97 94 98 98 98 96 94 96 96 98 99 96 95 102 97 103 104 107 107 106 101 100 104 108 114 102 103 105 107 108
150 180 162 144 125 118 112 103 99 99 101 104 104 98 100 102 101 101 100 97 96 97 98 96 92 89 99 107 101 107 114 110 102 100 102 94 92 104 108 103 97 103 107
149 170 156 147 130 124 119 110 103 103 104 105 105 105 108 106 105 103 104 106 107 109 104 103 97 102 106 108 108 106 106 108 108 104 99 85 98 107 107 109 104 109 110
148 161 155 147 139 130 125 114 109 108 108 106 105 108 107 106 106 106 105 109 105 109 108 100 106 110 117 110 103 100 105 122 147 114 84 77 105 112 114 116 115 113 106
141 141 153 147 145 137 130 119 110 110 111 112 111 112 110 110 109 112 109 109 116 112 110 108 109 117 122 117 110 107 79 81 125 111 95 92 103 119 125 121 124 116 112
137 144 149 151 146 142 132 126 114 113 117 119 120 117 113 114 116 116 117 121 121 115 107 107 112 128 131 122 92 57 332 121 110 101 101 98 97 108 112 118 125 123 124
131 140 150 150 145 139 134 128 122 121 123 122 121 116 119 122 124 130 126 115 123 111 104 104 118 134 131 117 84 40 111 117 111 111 104 120 127 122 122 116 129 126 130
129 134 142 146 140 134 131 126 129 130 131 124 126 125 131 133 144 143 129 112 104 103 102 97 101 104 91 69 41 36 128 132 118 113 111 118 137 137 134 138 140 142 139
131 126 124 137 144 139 140 135 134 133 130 133 129 139 144 153 163 161 134 119 104 104 95 89 52 351 6 269 216 72 125 128 127 130 133 135 135 141 134 133 127 144 147
130 129 130 134 136 140 140 138 129 135 135 139 145 149 163 180 187 176 154 166 144 111 132 192 214 253 265 269 355 80 129 139 134 134 142 175 161 154 155 157 160 161 161
138 145 139 131 142 157 141 146 139 147 149 156 150 158 174 216 221 205 194 220 211 191 263 254 252 249 242 225 237 167 150 192 144 149 169 172 166 161 162 168 174 176 177
157 160 152 151 158 155 162 136 148 165 160 154 165 175 203 233 243 233 232 235 207 266 261 269 259 252 248 250 252 234 165 186 173 168 186 178 174 172 175 177 182 185 186
163 162 166 159 164 167 160 151 166 168 174 183 183 194 222 258 272 285 298 286 304 234 258 248 259 244 222 198 224 205 191 189 200 194 190 187 186 182 187 190 191 194 197
167 170 171 168 171 189 149 164 172 186 196 216 210 198 205 246 252 250 263 291 294 287 263 199 215 242 237 190 212 187 190 199 201 201 206 194 195 193 195 201 202 202 205
167 166 179 179 185 179 155 159 181 202 220 214 200 194 173 196 235 233 255 278 296 303 207 159 172 220 262 260 204 194 190 208 207 201 198 203 205 209 205 208 212 214 214
170 171 178 186 188 156 177 188 195 185 212 205 213 180 173 204 225 207 233 258 290 294 335 11 349 329 315 358 160 175 189 199 205 197 202 209 210 215 219 217 220 222 225
173 174 176 177 180 172 181 191 185 193 190 192 208 215 144 169 201 156 331 306 278 329 27 354 320 308 313 304 165 184 205 206 207 202 200 207 217 219 224 227 227 227 230
164 169 177 178 175 167 167 172 166 169 184 191 191 203 177 174 184 63 1 297 295 37 340 319 323 25 33 31 287 247 220 205 219 214 198 203 208 213 228 230 233 234 235
163 166 172 156 166 165 162 159 150 168 171 207 198 202 198 203 208 159 275 297 306 333 325 344 304 117 232 267 283 246 245 219 226 221 207 214 211 213 218 228 232 235 240
162 170 163 160 168 167 162 169 141 150 197 179 208 203 201 206 195 192 254 288 336 288 360 357 295 281 313 310 320 313 275 244 232 240 215 221 207 224 221 221 220 237 239
164 163 168 165 176 157 143 159 157 207 159 193 211 222 214 212 195 197 241 279 328 278 217 276 271 17 326 11 11 320 312 332 236 248 206 240 223 207 217 222 212 230 239
169 173 166 179 168 173 162 165 154 187 229 171 213 215 215 219 206 199 216 242 212 278 294 284 283 336 291 352 151 15 344 334 349 357 357 288 315 356 263 268 250 251 254
171 169 170 172 172 172 175 122 59 23 330 317 193 224 216 220 220 197 205 217 220 230 253 243 253 181 271 310 152 149 9 261 324 331 345 10 357 269 346 327 284 255 246
177 176 169 170 171 174 172 168 177 185 227 237 218 215 210 219 227 213 206 206 218 215 240 249 230 206 173 262 331 358 206 176 195 327 328 334 341 343 340 334 320 306 291
178 179 174 171 175 179 182 183 190 206 230 249 225 223 222 217 221 224 210 208 205 216 228 240 248 207 208 201 199 339 0 339 80 116 296 318 330 312 284 263 289 311 331
181 179 175 174 185 186 190 190 194 195 211 234 247 220 211 225 229 225 220 209 215 210 215 221 236 228 215 237 187 186 186 188 260 96 285 295 267 299 302 309 329 328 334